Powrót do katalogu

OPS 4682 DEB

AktywnyPO
NORAD 51487·DEBRIS·🇺🇸 United States

Wystrzelony Apr 3, 1965 z Vandenberg Space Force Base

Loading…

Następne Przeloty (najbliższe 24 godziny)

TLE

ŚwieżeSource: Space-Track

Epoka: Sep 14, 2026, 14:21 UTC

1 51487U 65027FX  26257.59829398 -.00000087  00000-0 -33097-3 0  9992
2 51487  90.2407   8.6531 0024787 280.7789  93.3693 12.95961427575131

Śledź OPS 4682 DEB w czasie rzeczywistym z AllMySat

Download on the App Store